Weather History for Nuiqsut, AK

Change the Weather History Date:

Tuesday, February 12, 2013

  Actual Average (PAKU) Record (PAKU)
Temperature  
Mean Temperature -22 °F -  
Max Temperature -14 °F -12 °F 32 °F (1989)
Min Temperature -29 °F -20 °F -39 °F (1987)
Degree Days  
Heating Degree Days 87    
Moisture  
Dew Point -28 °F    
Average Humidity 82    
Maximum Humidity 96    
Minimum Humidity 73    
Precipitation  
Precipitation 0.00 in - - ()
Sea Level Pressure  
Sea Level Pressure 29.91 in    
Wind  
Wind Speed 4 mph (ENE)    
Max Wind Speed 9 mph    
Max Gust Speed -    
Visibility 9 miles    
Events      
Averages and records for this station are not official NWS values.
T = Trace of Precipitation, MM = Missing Value Source: NWS Daily Summary

Daily Weather History Graph

Daily Weather History Graph

Search for Another Location

Airport:

Trip Planner

Search our weather history database for the weather conditions in past years. The results will help you decide how hot, cold, wet, or windy it might be!

Date:

Astronomy

Feb. 12, 2013 Rise Set
Actual Time 9:51 AM AKST 4:46 PM AKST
Civil Twilight 8:39 AM AKST 5:58 PM AKST
Nautical Twilight 7:26 AM AKST 7:12 PM AKST
Astronomical Twilight 6:15 AM AKST 8:23 PM AKST
Moon 8:47 AM AKST (2/12) 10:25 PM AKST (2/12)
Length of Visible Light 9h 18m
Length of Day
6h 54m
Waxing Crescent, 8% of the Moon is Illuminated
Feb 12
Waxing Crescent
Feb 17
First Quarter
Feb 25
Full
Mar 4
Last Quarter
Mar 11
New

Hourly Weather History & Observations

Time (AKST) Temp. Windchill Dew Point Humidity Pressure Visibility Wind Dir Wind Speed Gust Speed Precip Events Conditions
12:23 AM -27.4 °F - -32.8 °F 75% 29.86 in 10.0 mi Calm Calm - N/A   Partly Cloudy
12:53 AM -27.9 °F - -31.0 °F 85% 29.87 in 10.0 mi Calm Calm - N/A   Partly Cloudy
1:53 AM -29.0 °F -41.0 °F -32.1 °F 85% 29.88 in 10.0 mi SSE 3.5 mph - N/A   Clear
3:53 AM -25.1 °F -36.5 °F -26.0 °F 96% 29.88 in 10.0 mi East 3.5 mph - N/A   Clear
4:53 AM -25.1 °F - -29.0 °F 82% 29.88 in 10.0 mi Calm Calm - N/A   Clear
5:53 AM -27.9 °F -39.8 °F -31.0 °F 85% 29.88 in 10.0 mi NE 3.5 mph - N/A   Clear
6:53 AM -29.0 °F -41.0 °F -32.1 °F 85% 29.89 in 10.0 mi NE 3.5 mph - N/A   Clear
7:53 AM -27.9 °F -44.7 °F -29.9 °F 90% 29.89 in 10.0 mi ENE 5.8 mph - N/A   Clear
8:53 AM -27.0 °F -43.7 °F -29.9 °F 86% 29.89 in 9.0 mi ENE 5.8 mph - N/A   Overcast
9:53 AM -26.0 °F -40.2 °F -29.9 °F 81% 29.90 in 5.0 mi NE 4.6 mph - N/A   Overcast
10:53 AM -26.0 °F -42.4 °F -29.9 °F 81% 29.90 in 10.0 mi NE 5.8 mph - N/A   Clear
11:53 AM -27.9 °F -39.8 °F -34.1 °F 73% 29.91 in 4.0 mi NE 3.5 mph - N/A   Haze
12:53 PM -27.9 °F -44.7 °F -31.0 °F 85% 29.92 in 8.0 mi NE 5.8 mph - N/A   Scattered Clouds
1:53 PM -24.0 °F -37.9 °F -27.9 °F 82% 29.93 in 7.0 mi NE 4.6 mph - N/A   Overcast
2:53 PM -24.0 °F -37.9 °F -29.0 °F 77% 29.93 in 7.0 mi NNE 4.6 mph - N/A   Mostly Cloudy
3:53 PM -24.0 °F -41.8 °F -27.9 °F 82% 29.93 in 10.0 mi NE 6.9 mph - N/A   Mostly Cloudy
4:53 PM -23.1 °F -38.9 °F -27.9 °F 78% 29.94 in 9.0 mi East 5.8 mph - N/A   Overcast
5:53 PM -20.0 °F -35.3 °F -25.1 °F 78% 29.94 in 10.0 mi ENE 5.8 mph - N/A   Overcast
6:53 PM -18.9 °F -37.2 °F -23.1 °F 81% 29.94 in 10.0 mi ENE 8.1 mph - N/A   Overcast
7:53 PM -22.0 °F -39.4 °F -26.0 °F 82% 29.95 in 10.0 mi ENE 6.9 mph - N/A   Scattered Clouds
8:53 PM -18.9 °F -34.0 °F -23.1 °F 81% 29.96 in 10.0 mi ENE 5.8 mph - N/A   Overcast
9:53 PM -17.0 °F -36.1 °F -20.9 °F 82% 29.96 in 10.0 mi ENE 9.2 mph - N/A   Overcast
10:53 PM -15.0 °F -33.7 °F -18.9 °F 82% 29.96 in 10.0 mi ENE 9.2 mph - N/A   Overcast
11:53 PM -14.1 °F -32.6 °F -18.0 °F 82% 29.96 in 10.0 mi ENE 9.2 mph - N/A   Overcast